WXM80 ListenWXM80 Stop

You find our weather info also at:

UK Metoffice

WeatherCloud

Weather Underground

Northeastern Weather Network

AWEKAS

Citizen Weather Observer Program (CWOP)

HAMweather, WeatherForYou, PWS Weather


Weather Underground History page Text

Daily Summary for January 23, 2018 Units:  Both    English   Metric
« Previous Day
Next Day »
Daily Weekly Monthly Yearly Custom
  High: Low: Average:
Temperature: TemperatureF °F /  -17.8 °C 36.2 °F /  2.3 °C 47.2 °F /  8.4 °C
Dew Point: DewpointF °F /  -17.8 °C 33.7 °F /  0.9 °C 45.1 °F /  7.3 °C
Humidity: Humidity % 67 % 93 %
Wind Speed: WindSpeedMPH mph /  0 km/h - 4.3 mph /  6.9 km/h
Wind Gust: WindSpeedGustMPH mph /  0 km/h - -
Wind:- - South
Pressure: PressureIn in /  0 hPa 29.26 in /  990.7 hPa -
Precipitation: 0.30 in /  7.62 mm    
Historical Graphs
 
 
Tabular Data for January 23, 2018
Time Temperature Dew Point Pressure Wind Wind Speed Wind Gust Humidity Rainfall Rate (Hourly)
TemperatureF °F /  -17.8 °C DewpointF °F /  -17.8 °C PressureIn in /  0 hPa Calm     Humidity % HourlyPrecipIn in /  0 mm
00:03 36.4 °F /  2.4 °C 35.6 °F /  2 °C 29.84 in /  1010.4 hPa East 2.6 mph /  4.2 km/h 5.8 mph /  9.3 km/h 97 % 0.00 in /  0 mm
00:08 36.4 °F /  2.4 °C 35.6 °F /  2 °C 29.84 in /  1010.4 hPa East 3.3 mph /  5.3 km/h 4.6 mph /  7.4 km/h 97 % 0.00 in /  0 mm
00:18 36.4 °F /  2.4 °C 35.6 °F /  2 °C 29.82 in /  1009.7 hPa East 5.6 mph /  9 km/h 6.9 mph /  11.1 km/h 97 % 0.00 in /  0 mm
00:23 36.4 °F /  2.4 °C 35.6 °F /  2 °C 29.82 in /  1009.7 hPa East 4.2 mph /  6.8 km/h 5.8 mph /  9.3 km/h 97 % 0.00 in /  0 mm
00:28 36.4 °F /  2.4 °C 35.6 °F /  2 °C 29.82 in /  1009.7 hPa East 4.0 mph /  6.4 km/h 5.8 mph /  9.3 km/h 97 % 0.00 in /  0 mm
00:33 36.4 °F /  2.4 °C 35.6 °F /  2 °C 29.81 in /  1009.4 hPa East 2.9 mph /  4.7 km/h 5.8 mph /  9.3 km/h 97 % 0.00 in /  0 mm
00:40 36.4 °F /  2.4 °C 35.6 °F /  2 °C 29.81 in /  1009.4 hPa East 5.1 mph /  8.2 km/h 6.0 mph /  9.7 km/h 97 % 0.00 in /  0 mm
00:45 36.5 °F /  2.5 °C 35.7 °F /  2.1 °C 29.81 in /  1009.4 hPa East 3.1 mph /  5 km/h 4.6 mph /  7.4 km/h 97 % 0.00 in /  0 mm
00:50 36.5 °F /  2.5 °C 35.7 °F /  2.1 °C 29.80 in /  1009 hPa East 1.9 mph /  3.1 km/h 3.5 mph /  5.6 km/h 97 % 0.00 in /  0 mm
01:05 36.6 °F /  2.6 °C 35.8 °F /  2.1 °C 29.79 in /  1008.7 hPa ENE 2.2 mph /  3.5 km/h 3.5 mph /  5.6 km/h 97 % 0.00 in /  0 mm
01:10 36.5 °F /  2.5 °C 36.0 °F /  2.2 °C 29.79 in /  1008.7 hPa ENE 1.8 mph /  2.9 km/h 3.5 mph /  5.6 km/h 98 % 0.00 in /  0 mm
01:15 36.5 °F /  2.5 °C 35.7 °F /  2.1 °C 29.79 in /  1008.7 hPa ENE 1.3 mph /  2.1 km/h 3.5 mph /  5.6 km/h 97 % 0.00 in /  0 mm
01:20 36.5 °F /  2.5 °C 36.0 °F /  2.2 °C 29.79 in /  1008.7 hPa ENE 2.5 mph /  4 km/h 3.5 mph /  5.6 km/h 98 % 0.00 in /  0 mm
01:25 36.5 °F /  2.5 °C 36.0 °F /  2.2 °C 29.78 in /  1008.4 hPa ENE 2.9 mph /  4.7 km/h 3.5 mph /  5.6 km/h 98 % 0.00 in /  0 mm
01:30 36.4 °F /  2.4 °C 35.9 °F /  2.2 °C 29.79 in /  1008.7 hPa ENE 1.5 mph /  2.4 km/h 3.5 mph /  5.6 km/h 98 % 0.00 in /  0 mm
01:35 36.3 °F /  2.4 °C 35.5 °F /  1.9 °C 29.78 in /  1008.4 hPa ENE 2.3 mph /  3.7 km/h 3.5 mph /  5.6 km/h 97 % 0.00 in /  0 mm
01:41 36.3 °F /  2.4 °C 35.5 °F /  1.9 °C 29.77 in /  1008 hPa ENE 2.0 mph /  3.2 km/h 4.0 mph /  6.4 km/h 97 % 0.00 in /  0 mm
01:46 36.2 °F /  2.3 °C 35.4 °F /  1.9 °C 29.76 in /  1007.7 hPa ENE 2.0 mph /  3.2 km/h 3.0 mph /  4.8 km/h 97 % 0.00 in /  0 mm
01:51 36.2 °F /  2.3 °C 35.4 °F /  1.9 °C 29.75 in /  1007.3 hPa ENE 2.0 mph /  3.2 km/h 3.0 mph /  4.8 km/h 97 % 0.00 in /  0 mm
01:55 36.2 °F /  2.3 °C 35.4 °F /  1.9 °C 29.75 in /  1007.3 hPa ENE 3.0 mph /  4.8 km/h 6.0 mph /  9.7 km/h 97 % 0.00 in /  0 mm
02:01 36.3 °F /  2.4 °C 35.5 °F /  1.9 °C 29.75 in /  1007.3 hPa East 4.3 mph /  6.9 km/h 6.9 mph /  11.1 km/h 97 % 0.00 in /  0 mm
02:06 36.4 °F /  2.4 °C 35.6 °F /  2 °C 29.75 in /  1007.3 hPa ENE 2.1 mph /  3.4 km/h 3.5 mph /  5.6 km/h 97 % 0.00 in /  0 mm
02:16 36.5 °F /  2.5 °C 36.0 °F /  2.2 °C 29.75 in /  1007.3 hPa ENE 2.6 mph /  4.2 km/h 3.5 mph /  5.6 km/h 98 % 0.00 in /  0 mm
02:21 36.6 °F /  2.6 °C 36.1 °F /  2.3 °C 29.75 in /  1007.3 hPa ENE 2.2 mph /  3.5 km/h 3.5 mph /  5.6 km/h 98 % 0.00 in /  0 mm
02:31 36.7 °F /  2.6 °C 36.2 °F /  2.3 °C 29.75 in /  1007.3 hPa ENE 1.1 mph /  1.8 km/h 2.3 mph /  3.7 km/h 98 % 0.00 in /  0 mm
02:36 36.8 °F /  2.7 °C 36.3 °F /  2.4 °C 29.74 in /  1007 hPa ENE 0.5 mph /  0.8 km/h 3.5 mph /  5.6 km/h 98 % 0.00 in /  0 mm
02:46 37.0 °F /  2.8 °C 36.5 °F /  2.5 °C 29.74 in /  1007 hPa ENE 3.0 mph /  4.8 km/h 3.5 mph /  5.6 km/h 98 % 0.00 in /  0 mm
02:51 37.0 °F /  2.8 °C 36.5 °F /  2.5 °C 29.74 in /  1007 hPa ENE 1.9 mph /  3.1 km/h 3.5 mph /  5.6 km/h 98 % 0.00 in /  0 mm
02:56 37.0 °F /  2.8 °C 36.5 °F /  2.5 °C 29.73 in /  1006.7 hPa ENE 1.5 mph /  2.4 km/h 3.0 mph /  4.8 km/h 98 % 0.00 in /  0 mm
03:01 37.0 °F /  2.8 °C 36.5 °F /  2.5 °C 29.72 in /  1006.3 hPa ENE 1.1 mph /  1.8 km/h 2.3 mph /  3.7 km/h 98 % 0.00 in /  0 mm
03:06 37.0 °F /  2.8 °C 36.5 °F /  2.5 °C 29.72 in /  1006.3 hPa ENE 1.9 mph /  3.1 km/h 3.5 mph /  5.6 km/h 98 % 0.00 in /  0 mm
03:11 37.0 °F /  2.8 °C 36.5 °F /  2.5 °C 29.71 in /  1006 hPa ENE 1.7 mph /  2.7 km/h 3.5 mph /  5.6 km/h 98 % 0.00 in /  0 mm
03:16 37.0 °F /  2.8 °C 36.5 °F /  2.5 °C 29.71 in /  1006 hPa ENE 2.6 mph /  4.2 km/h 3.5 mph /  5.6 km/h 98 % 0.00 in /  0 mm
03:21 37.0 °F /  2.8 °C 36.5 °F /  2.5 °C 29.71 in /  1006 hPa ENE 2.2 mph /  3.5 km/h 3.5 mph /  5.6 km/h 98 % 0.00 in /  0 mm
03:26 37.0 °F /  2.8 °C 36.5 °F /  2.5 °C 29.71 in /  1006 hPa ENE 0.9 mph /  1.4 km/h 2.3 mph /  3.7 km/h 98 % 0.00 in /  0 mm
03:32 37.0 °F /  2.8 °C 36.5 °F /  2.5 °C 29.71 in /  1006 hPa Calm     98 % 0.00 in /  0 mm
03:37 37.0 °F /  2.8 °C 36.5 °F /  2.5 °C 29.71 in /  1006 hPa Calm     98 % 0.00 in /  0 mm
03:42 37.0 °F /  2.8 °C 36.5 °F /  2.5 °C 29.71 in /  1006 hPa Calm     98 % 0.00 in /  0 mm
03:47 37.0 °F /  2.8 °C 36.5 °F /  2.5 °C 29.71 in /  1006 hPa Calm     98 % 0.00 in /  0 mm
03:52 37.1 °F /  2.8 °C 36.6 °F /  2.6 °C 29.69 in /  1005.3 hPa ENE 1.6 mph /  2.6 km/h 3.5 mph /  5.6 km/h 98 % 0.00 in /  0 mm
03:57 37.1 °F /  2.8 °C 36.6 °F /  2.6 °C 29.69 in /  1005.3 hPa ENE 2.0 mph /  3.2 km/h 3.5 mph /  5.6 km/h 98 % 0.00 in /  0 mm
04:02 37.1 °F /  2.8 °C 36.6 °F /  2.6 °C 29.69 in /  1005.3 hPa ENE 1.3 mph /  2.1 km/h 3.5 mph /  5.6 km/h 98 % 0.00 in /  0 mm
04:07 37.1 °F /  2.8 °C 36.6 °F /  2.6 °C 29.69 in /  1005.3 hPa ENE 2.3 mph /  3.7 km/h 3.5 mph /  5.6 km/h 98 % 0.00 in /  0 mm
04:12 37.1 °F /  2.8 °C 36.6 °F /  2.6 °C 29.68 in /  1005 hPa ENE 0.8 mph /  1.3 km/h 3.5 mph /  5.6 km/h 98 % 0.00 in /  0 mm
04:17 37.1 °F /  2.8 °C 36.6 °F /  2.6 °C 29.68 in /  1005 hPa ENE 1.6 mph /  2.6 km/h 3.5 mph /  5.6 km/h 98 % 0.00 in /  0 mm
04:22 37.1 °F /  2.8 °C 36.6 °F /  2.6 °C 29.68 in /  1005 hPa ENE 3.1 mph /  5 km/h 5.0 mph /  8 km/h 98 % 0.00 in /  0 mm
04:32 37.2 °F /  2.9 °C 36.7 °F /  2.6 °C 29.67 in /  1004.6 hPa ENE 2.9 mph /  4.7 km/h 3.5 mph /  5.6 km/h 98 % 0.00 in /  0 mm
04:37 37.3 °F /  2.9 °C 36.8 °F /  2.7 °C 29.66 in /  1004.3 hPa NE 2.0 mph /  3.2 km/h 3.5 mph /  5.6 km/h 98 % 0.00 in /  0 mm
04:42 37.4 °F /  3 °C 36.9 °F /  2.7 °C 29.66 in /  1004.3 hPa ENE 2.7 mph /  4.3 km/h 3.5 mph /  5.6 km/h 98 % 0.00 in /  0 mm
04:47 37.4 °F /  3 °C 36.9 °F /  2.7 °C 29.65 in /  1003.9 hPa ENE 4.3 mph /  6.9 km/h 6.9 mph /  11.1 km/h 98 % 0.00 in /  0 mm
04:52 37.5 °F /  3.1 °C 37.0 °F /  2.8 °C 29.66 in /  1004.3 hPa ENE 1.5 mph /  2.4 km/h 3.5 mph /  5.6 km/h 98 % 0.00 in /  0 mm
04:57 37.5 °F /  3.1 °C 37.0 °F /  2.8 °C 29.66 in /  1004.3 hPa ENE 0.5 mph /  0.8 km/h 1.2 mph /  1.9 km/h 98 % 0.00 in /  0 mm
05:07 37.5 °F /  3.1 °C 37.0 °F /  2.8 °C 29.64 in /  1003.6 hPa Calm     98 % 0.00 in /  0 mm
05:13 37.6 °F /  3.1 °C 37.1 °F /  2.8 °C 29.64 in /  1003.6 hPa Calm     98 % 0.00 in /  0 mm
05:18 37.7 °F /  3.2 °C 37.2 °F /  2.9 °C 29.64 in /  1003.6 hPa Calm   1.2 mph /  1.9 km/h 98 % 0.00 in /  0 mm
05:23 37.7 °F /  3.2 °C 37.2 °F /  2.9 °C 29.65 in /  1003.9 hPa NE 1.3 mph /  2.1 km/h 3.5 mph /  5.6 km/h 98 % 0.00 in /  0 mm
05:28 37.8 °F /  3.2 °C 37.3 °F /  2.9 °C 29.64 in /  1003.6 hPa Calm   2.3 mph /  3.7 km/h 98 % 0.00 in /  0 mm
05:33 37.8 °F /  3.2 °C 37.3 °F /  2.9 °C 29.64 in /  1003.6 hPa NNE 1.7 mph /  2.7 km/h 3.5 mph /  5.6 km/h 98 % 0.00 in /  0 mm
05:38 37.8 °F /  3.2 °C 37.3 °F /  2.9 °C 29.63 in /  1003.3 hPa NNE 1.4 mph /  2.3 km/h 2.3 mph /  3.7 km/h 98 % 0.00 in /  0 mm
05:43 37.7 °F /  3.2 °C 37.2 °F /  2.9 °C 29.63 in /  1003.3 hPa NE 0.8 mph /  1.3 km/h 2.3 mph /  3.7 km/h 98 % 0.00 in /  0 mm
05:53 37.6 °F /  3.1 °C 37.1 °F /  2.8 °C 29.63 in /  1003.3 hPa Calm   1.2 mph /  1.9 km/h 98 % 0.00 in /  0 mm
05:58 37.5 °F /  3.1 °C 37.0 °F /  2.8 °C 29.62 in /  1002.9 hPa NE 1.0 mph /  1.6 km/h 1.2 mph /  1.9 km/h 98 % 0.00 in /  0 mm
06:03 37.5 °F /  3.1 °C 37.0 °F /  2.8 °C 29.61 in /  1002.6 hPa ENE 1.8 mph /  2.9 km/h 3.5 mph /  5.6 km/h 98 % 0.00 in /  0 mm
06:08 37.5 °F /  3.1 °C 37.0 °F /  2.8 °C 29.62 in /  1002.9 hPa Calm     98 % 0.00 in /  0 mm
06:13 37.5 °F /  3.1 °C 37.0 °F /  2.8 °C 29.61 in /  1002.6 hPa NE 1.2 mph /  1.9 km/h 3.0 mph /  4.8 km/h 98 % 0.00 in /  0 mm
06:23 37.5 °F /  3.1 °C 37.0 °F /  2.8 °C 29.61 in /  1002.6 hPa Calm     98 % 0.00 in /  0 mm
06:28 37.5 °F /  3.1 °C 37.0 °F /  2.8 °C 29.60 in /  1002.3 hPa Calm   1.2 mph /  1.9 km/h 98 % 0.00 in /  0 mm
06:33 37.6 °F /  3.1 °C 37.1 °F /  2.8 °C 29.59 in /  1001.9 hPa Calm     98 % 0.00 in /  0 mm
06:38 37.6 °F /  3.1 °C 37.1 °F /  2.8 °C 29.59 in /  1001.9 hPa Calm   1.2 mph /  1.9 km/h 98 % 0.00 in /  0 mm
06:43 37.7 °F /  3.2 °C 37.2 °F /  2.9 °C 29.58 in /  1001.6 hPa NE 0.6 mph /  1 km/h 3.0 mph /  4.8 km/h 98 % 0.00 in /  0 mm
06:48 37.9 °F /  3.3 °C 37.4 °F /  3 °C 29.58 in /  1001.6 hPa NNE 0.8 mph /  1.3 km/h 3.5 mph /  5.6 km/h 98 % 0.00 in /  0 mm
06:54 38.1 °F /  3.4 °C 37.6 °F /  3.1 °C 29.57 in /  1001.2 hPa NNE 1.5 mph /  2.4 km/h 2.3 mph /  3.7 km/h 98 % 0.00 in /  0 mm
06:59 38.3 °F /  3.5 °C 37.8 °F /  3.2 °C 29.57 in /  1001.2 hPa NE 0.1 mph /  0.2 km/h 2.3 mph /  3.7 km/h 98 % 0.00 in /  0 mm
07:04 38.4 °F /  3.6 °C 37.9 °F /  3.3 °C 29.56 in /  1000.9 hPa SSE 2.6 mph /  4.2 km/h 4.6 mph /  7.4 km/h 98 % 0.00 in /  0 mm
07:09 40.8 °F /  4.9 °C 40.3 °F /  4.6 °C 29.56 in /  1000.9 hPa SSW 2.3 mph /  3.7 km/h 5.8 mph /  9.3 km/h 98 % 0.00 in /  0 mm
07:14 45.1 °F /  7.3 °C 44.6 °F /  7 °C 29.55 in /  1000.6 hPa South 3.4 mph /  5.5 km/h 7.0 mph /  11.3 km/h 98 % 0.00 in /  0 mm
07:19 48.0 °F /  8.9 °C 47.5 °F /  8.6 °C 29.55 in /  1000.6 hPa SSW 3.9 mph /  6.3 km/h 8.1 mph /  13 km/h 98 % 0.00 in /  0 mm
07:24 50.0 °F /  10 °C 49.7 °F /  9.8 °C 29.54 in /  1000.2 hPa SSE 8.5 mph /  13.7 km/h 12.7 mph /  20.4 km/h 99 % 0.00 in /  0 mm
07:29 51.3 °F /  10.7 °C 51.0 °F /  10.6 °C 29.54 in /  1000.2 hPa South 5.4 mph /  8.7 km/h 8.0 mph /  12.9 km/h 99 % 0.00 in /  0 mm
07:34 52.1 °F /  11.2 °C 51.8 °F /  11 °C 29.54 in /  1000.2 hPa SSE 4.9 mph /  7.9 km/h 10.4 mph /  16.7 km/h 99 % 0.00 in /  0 mm
07:39 52.4 °F /  11.3 °C 52.1 °F /  11.2 °C 29.53 in /  999.9 hPa SSW 6.4 mph /  10.3 km/h 9.2 mph /  14.8 km/h 99 % 0.00 in /  0 mm
07:44 53.0 °F /  11.7 °C 52.7 °F /  11.5 °C 29.54 in /  1000.2 hPa SSW 8.5 mph /  13.7 km/h 16.1 mph /  25.9 km/h 99 % 0.00 in /  0 mm
07:49 53.2 °F /  11.8 °C 52.9 °F /  11.6 °C 29.54 in /  1000.2 hPa South 5.5 mph /  8.9 km/h 9.0 mph /  14.5 km/h 99 % 0.01 in /  0.25 mm
07:54 53.3 °F /  11.8 °C 53.0 °F /  11.7 °C 29.53 in /  999.9 hPa SSE 10.0 mph /  16.1 km/h 10.4 mph /  16.7 km/h 99 % 0.03 in /  0.76 mm
07:59 53.5 °F /  11.9 °C 53.2 °F /  11.8 °C 29.53 in /  999.9 hPa South 7.8 mph /  12.6 km/h 13.0 mph /  20.9 km/h 99 % 0.04 in /  1.02 mm
08:04 53.7 °F /  12.1 °C 53.4 °F /  11.9 °C 29.52 in /  999.5 hPa SE 10.8 mph /  17.4 km/h 15.0 mph /  24.1 km/h 99 % 0.04 in /  1.02 mm
08:14 54.4 °F /  12.4 °C 54.1 °F /  12.3 °C 29.52 in /  999.5 hPa SSW 8.2 mph /  13.2 km/h 11.5 mph /  18.5 km/h 99 % 0.04 in /  1.02 mm
08:19 54.8 °F /  12.7 °C 54.5 °F /  12.5 °C 29.51 in /  999.2 hPa South 6.3 mph /  10.1 km/h 12.0 mph /  19.3 km/h 99 % 0.04 in /  1.02 mm
08:24 54.8 °F /  12.7 °C 54.5 °F /  12.5 °C 29.51 in /  999.2 hPa South 6.6 mph /  10.6 km/h 13.8 mph /  22.2 km/h 99 % 0.04 in /  1.02 mm
08:29 54.8 °F /  12.7 °C 54.5 °F /  12.5 °C 29.51 in /  999.2 hPa South 6.2 mph /  10 km/h 11.5 mph /  18.5 km/h 99 % 0.04 in /  1.02 mm
08:35 54.9 °F /  12.7 °C 54.6 °F /  12.6 °C 29.50 in /  998.9 hPa SSW 6.1 mph /  9.8 km/h 12.7 mph /  20.4 km/h 99 % 0.04 in /  1.02 mm
08:45 55.2 °F /  12.9 °C 54.9 °F /  12.7 °C 29.50 in /  998.9 hPa South 11.6 mph /  18.7 km/h 21.9 mph /  35.2 km/h 99 % 0.04 in /  1.02 mm
08:50 55.4 °F /  13 °C 55.1 °F /  12.8 °C 29.50 in /  998.9 hPa SSE 5.2 mph /  8.4 km/h 13.8 mph /  22.2 km/h 99 % 0.03 in /  0.76 mm
08:55 55.7 °F /  13.2 °C 55.4 °F /  13 °C 29.50 in /  998.9 hPa South 6.4 mph /  10.3 km/h 11.5 mph /  18.5 km/h 99 % 0.01 in /  0.25 mm
09:05 56.0 °F /  13.3 °C 55.7 °F /  13.2 °C 29.49 in /  998.5 hPa SSE 7.7 mph /  12.4 km/h 13.8 mph /  22.2 km/h 99 % 0.01 in /  0.25 mm
09:15 56.2 °F /  13.4 °C 55.9 °F /  13.3 °C 29.49 in /  998.5 hPa SSW 9.2 mph /  14.8 km/h 15.0 mph /  24.1 km/h 99 % 0.02 in /  0.51 mm
09:20 56.2 °F /  13.4 °C 55.9 °F /  13.3 °C 29.48 in /  998.2 hPa SSW 6.6 mph /  10.6 km/h 15.0 mph /  24.1 km/h 99 % 0.02 in /  0.51 mm
09:25 56.3 °F /  13.5 °C 56.0 °F /  13.3 °C 29.48 in /  998.2 hPa South 8.3 mph /  13.4 km/h 13.0 mph /  20.9 km/h 99 % 0.03 in /  0.76 mm
09:30 56.2 °F /  13.4 °C 55.9 °F /  13.3 °C 29.48 in /  998.2 hPa SSW 6.3 mph /  10.1 km/h 11.5 mph /  18.5 km/h 99 % 0.03 in /  0.76 mm
09:35 56.2 °F /  13.4 °C 55.9 °F /  13.3 °C 29.48 in /  998.2 hPa South 6.7 mph /  10.8 km/h 11.5 mph /  18.5 km/h 99 % 0.04 in /  1.02 mm
09:40 56.2 °F /  13.4 °C 55.9 °F /  13.3 °C 29.47 in /  997.9 hPa South 9.4 mph /  15.1 km/h 19.6 mph /  31.5 km/h 99 % 0.06 in /  1.52 mm
09:45 56.3 °F /  13.5 °C 56.0 °F /  13.3 °C 29.47 in /  997.9 hPa SSE 5.6 mph /  9 km/h 11.5 mph /  18.5 km/h 99 % 0.08 in /  2.03 mm
09:50 56.3 °F /  13.5 °C 56.0 °F /  13.3 °C 29.47 in /  997.9 hPa South 8.2 mph /  13.2 km/h 12.7 mph /  20.4 km/h 99 % 0.09 in /  2.29 mm
09:56 56.4 °F /  13.6 °C 56.1 °F /  13.4 °C 29.47 in /  997.9 hPa SSW 7.1 mph /  11.4 km/h 16.1 mph /  25.9 km/h 99 % 0.10 in /  2.54 mm
10:01 56.6 °F /  13.7 °C 56.3 °F /  13.5 °C 29.47 in /  997.9 hPa SSW 10.1 mph /  16.3 km/h 16.1 mph /  25.9 km/h 99 % 0.10 in /  2.54 mm
10:06 56.6 °F /  13.7 °C 56.3 °F /  13.5 °C 29.47 in /  997.9 hPa SSW 6.7 mph /  10.8 km/h 15.0 mph /  24.1 km/h 99 % 0.11 in /  2.79 mm
10:11 56.6 °F /  13.7 °C 56.3 °F /  13.5 °C 29.46 in /  997.5 hPa South 10.6 mph /  17.1 km/h 17.3 mph /  27.8 km/h 99 % 0.11 in /  2.79 mm
10:16 56.6 °F /  13.7 °C 56.3 °F /  13.5 °C 29.45 in /  997.2 hPa SSE 6.1 mph /  9.8 km/h 18.4 mph /  29.6 km/h 99 % 0.11 in /  2.79 mm
10:26 56.6 °F /  13.7 °C 56.3 °F /  13.5 °C 29.45 in /  997.2 hPa SSW 5.5 mph /  8.9 km/h 11.5 mph /  18.5 km/h 99 % 0.11 in /  2.79 mm
10:31 56.5 °F /  13.6 °C 56.2 °F /  13.4 °C 29.44 in /  996.8 hPa South 8.1 mph /  13 km/h 11.0 mph /  17.7 km/h 99 % 0.10 in /  2.54 mm
10:36 56.5 °F /  13.6 °C 56.2 °F /  13.4 °C 29.44 in /  996.8 hPa SW 5.6 mph /  9 km/h 15.0 mph /  24.1 km/h 99 % 0.09 in /  2.29 mm
10:41 56.5 °F /  13.6 °C 56.2 °F /  13.4 °C 29.44 in /  996.8 hPa South 3.7 mph /  6 km/h 12.7 mph /  20.4 km/h 99 % 0.08 in /  2.03 mm
10:47 56.4 °F /  13.6 °C 56.1 °F /  13.4 °C 29.45 in /  997.2 hPa SSW 9.9 mph /  15.9 km/h 15.0 mph /  24.1 km/h 99 % 0.07 in /  1.78 mm
10:52 56.3 °F /  13.5 °C 56.0 °F /  13.3 °C 29.43 in /  996.5 hPa SSW 7.1 mph /  11.4 km/h 11.5 mph /  18.5 km/h 99 % 0.07 in /  1.78 mm
11:02 55.9 °F /  13.3 °C 55.3 °F /  12.9 °C 29.40 in /  995.5 hPa SSW 8.4 mph /  13.5 km/h 19.6 mph /  31.5 km/h 98 % 0.07 in /  1.78 mm
11:12 56.5 °F /  13.6 °C 56.2 °F /  13.4 °C 29.39 in /  995.1 hPa SSE 10.8 mph /  17.4 km/h 16.1 mph /  25.9 km/h 99 % 0.07 in /  1.78 mm
11:22 56.7 °F /  13.7 °C 56.4 °F /  13.6 °C 29.39 in /  995.1 hPa SSE 10.1 mph /  16.3 km/h 17.0 mph /  27.4 km/h 99 % 0.08 in /  2.03 mm
11:27 56.5 °F /  13.6 °C 55.9 °F /  13.3 °C 29.38 in /  994.8 hPa SSW 11.4 mph /  18.3 km/h 18.4 mph /  29.6 km/h 98 % 0.09 in /  2.29 mm
11:32 56.2 °F /  13.4 °C 55.6 °F /  13.1 °C 29.38 in /  994.8 hPa SSW 7.7 mph /  12.4 km/h 16.0 mph /  25.7 km/h 98 % 0.09 in /  2.29 mm
11:37 56.1 °F /  13.4 °C 55.5 °F /  13.1 °C 29.37 in /  994.5 hPa South 9.5 mph /  15.3 km/h 16.1 mph /  25.9 km/h 98 % 0.10 in /  2.54 mm
11:42 55.9 °F /  13.3 °C 55.3 °F /  12.9 °C 29.36 in /  994.1 hPa SSW 8.5 mph /  13.7 km/h 19.6 mph /  31.5 km/h 98 % 0.09 in /  2.29 mm
11:47 55.9 °F /  13.3 °C 55.3 °F /  12.9 °C 29.36 in /  994.1 hPa South 8.2 mph /  13.2 km/h 18.0 mph /  29 km/h 98 % 0.10 in /  2.54 mm
11:52 55.9 °F /  13.3 °C 55.3 °F /  12.9 °C 29.35 in /  993.8 hPa SSW 6.7 mph /  10.8 km/h 11.5 mph /  18.5 km/h 98 % 0.09 in /  2.29 mm
11:57 56.2 °F /  13.4 °C 55.6 °F /  13.1 °C 29.34 in /  993.5 hPa South 8.9 mph /  14.3 km/h 10.4 mph /  16.7 km/h 98 % 0.08 in /  2.03 mm
12:02 56.3 °F /  13.5 °C 55.7 °F /  13.2 °C 29.34 in /  993.5 hPa South 11.2 mph /  18 km/h 17.0 mph /  27.4 km/h 98 % 0.07 in /  1.78 mm
12:12 56.5 °F /  13.6 °C 55.9 °F /  13.3 °C 29.33 in /  993.1 hPa South 10.1 mph /  16.3 km/h 20.7 mph /  33.3 km/h 98 % 0.06 in /  1.52 mm
12:17 56.5 °F /  13.6 °C 55.9 °F /  13.3 °C 29.33 in /  993.1 hPa SSW 8.6 mph /  13.8 km/h 19.6 mph /  31.5 km/h 98 % 0.05 in /  1.27 mm
12:23 56.5 °F /  13.6 °C 55.9 °F /  13.3 °C 29.31 in /  992.4 hPa SE 8.9 mph /  14.3 km/h 18.4 mph /  29.6 km/h 98 % 0.04 in /  1.02 mm
12:28 56.4 °F /  13.6 °C 55.8 °F /  13.2 °C 29.30 in /  992.1 hPa SSW 5.8 mph /  9.3 km/h 14.0 mph /  22.5 km/h 98 % 0.03 in /  0.76 mm
12:33 56.2 °F /  13.4 °C 55.6 °F /  13.1 °C 29.30 in /  992.1 hPa South 7.2 mph /  11.6 km/h 17.3 mph /  27.8 km/h 98 % 0.03 in /  0.76 mm
12:38 56.2 °F /  13.4 °C 55.6 °F /  13.1 °C 29.31 in /  992.4 hPa South 5.9 mph /  9.5 km/h 17.3 mph /  27.8 km/h 98 % 0.02 in /  0.51 mm
12:43 56.1 °F /  13.4 °C 55.5 °F /  13.1 °C 29.31 in /  992.4 hPa South 8.2 mph /  13.2 km/h 12.7 mph /  20.4 km/h 98 % 0.02 in /  0.51 mm
12:48 56.0 °F /  13.3 °C 55.4 °F /  13 °C 29.31 in /  992.4 hPa SSE 7.7 mph /  12.4 km/h 11.5 mph /  18.5 km/h 98 % 0.01 in /  0.25 mm
12:53 55.9 °F /  13.3 °C 55.3 °F /  12.9 °C 29.31 in /  992.4 hPa SW 6.3 mph /  10.1 km/h 12.7 mph /  20.4 km/h 98 % 0.01 in /  0.25 mm
13:08 55.6 °F /  13.1 °C 55.0 °F /  12.8 °C 29.30 in /  992.1 hPa South 10.5 mph /  16.9 km/h 17.3 mph /  27.8 km/h 98 % 0.01 in /  0.25 mm
13:13 55.5 °F /  13.1 °C 54.9 °F /  12.7 °C 29.29 in /  991.8 hPa SSW 7.5 mph /  12.1 km/h 16.1 mph /  25.9 km/h 98 % 0.00 in /  0 mm
13:16 55.4 °F /  13 °C 54.8 °F /  12.7 °C 29.29 in /  991.8 hPa SSW 5.8 mph /  9.3 km/h 11.5 mph /  18.5 km/h 98 % 0.00 in /  0 mm
13:21 55.2 °F /  12.9 °C 54.6 °F /  12.6 °C 29.28 in /  991.4 hPa South 7.8 mph /  12.6 km/h 16.1 mph /  25.9 km/h 98 % 0.00 in /  0 mm
13:22 55.2 °F /  12.9 °C 54.6 °F /  12.6 °C 29.29 in /  991.8 hPa SSE 6.4 mph /  10.3 km/h 16.1 mph /  25.9 km/h 98 % 0.00 in /  0 mm
13:27 55.0 °F /  12.8 °C 54.2 °F /  12.3 °C 29.28 in /  991.4 hPa South 7.5 mph /  12.1 km/h 11.5 mph /  18.5 km/h 97 % 0.00 in /  0 mm
13:32 55.0 °F /  12.8 °C 54.2 °F /  12.3 °C 29.28 in /  991.4 hPa SSW 5.1 mph /  8.2 km/h 11.5 mph /  18.5 km/h 97 % 0.00 in /  0 mm
13:37 54.9 °F /  12.7 °C 54.1 °F /  12.3 °C 29.29 in /  991.8 hPa SSW 7.1 mph /  11.4 km/h 15.0 mph /  24.1 km/h 97 % 0.00 in /  0 mm
13:42 54.9 °F /  12.7 °C 54.1 °F /  12.3 °C 29.29 in /  991.8 hPa SW 6.9 mph /  11.1 km/h 13.8 mph /  22.2 km/h 97 % 0.00 in /  0 mm
13:47 54.9 °F /  12.7 °C 54.1 °F /  12.3 °C 29.29 in /  991.8 hPa WSW 5.8 mph /  9.3 km/h 13.8 mph /  22.2 km/h 97 % 0.00 in /  0 mm
13:52 54.9 °F /  12.7 °C 54.1 °F /  12.3 °C 29.29 in /  991.8 hPa WSW 5.0 mph /  8 km/h 8.0 mph /  12.9 km/h 97 % 0.00 in /  0 mm
13:57 55.1 °F /  12.8 °C 54.5 °F /  12.5 °C 29.28 in /  991.4 hPa SW 5.4 mph /  8.7 km/h 9.2 mph /  14.8 km/h 98 % 0.00 in /  0 mm
14:02 55.2 °F /  12.9 °C 54.6 °F /  12.6 °C 29.28 in /  991.4 hPa SSW 4.3 mph /  6.9 km/h 6.0 mph /  9.7 km/h 98 % 0.00 in /  0 mm
14:07 55.3 °F /  12.9 °C 54.7 °F /  12.6 °C 29.27 in /  991.1 hPa SSW 2.2 mph /  3.5 km/h 7.0 mph /  11.3 km/h 98 % 0.00 in /  0 mm
14:12 55.4 °F /  13 °C 54.8 °F /  12.7 °C 29.27 in /  991.1 hPa South 5.5 mph /  8.9 km/h 8.1 mph /  13 km/h 98 % 0.00 in /  0 mm
14:22 55.4 °F /  13 °C 54.8 °F /  12.7 °C 29.27 in /  991.1 hPa WSW 0.8 mph /  1.3 km/h 3.0 mph /  4.8 km/h 98 % 0.00 in /  0 mm
14:32 55.7 °F /  13.2 °C 55.1 °F /  12.8 °C 29.26 in /  990.7 hPa WSW 2.0 mph /  3.2 km/h 3.5 mph /  5.6 km/h 98 % 0.00 in /  0 mm
14:37 55.8 °F /  13.2 °C 55.2 °F /  12.9 °C 29.26 in /  990.7 hPa SW 2.8 mph /  4.5 km/h 3.5 mph /  5.6 km/h 98 % 0.00 in /  0 mm
14:42 55.9 °F /  13.3 °C 55.3 °F /  12.9 °C 29.26 in /  990.7 hPa SW 0.2 mph /  0.3 km/h 3.5 mph /  5.6 km/h 98 % 0.00 in /  0 mm
14:47 55.9 °F /  13.3 °C 55.3 °F /  12.9 °C 29.26 in /  990.7 hPa WSW 3.0 mph /  4.8 km/h 3.5 mph /  5.6 km/h 98 % 0.00 in /  0 mm
14:52 55.9 °F /  13.3 °C 55.3 °F /  12.9 °C 29.26 in /  990.7 hPa SW 3.5 mph /  5.6 km/h 3.5 mph /  5.6 km/h 98 % 0.00 in /  0 mm
14:58 56.0 °F /  13.3 °C 55.4 °F /  13 °C 29.26 in /  990.7 hPa SW 0.1 mph /  0.2 km/h 2.3 mph /  3.7 km/h 98 % 0.00 in /  0 mm
15:03 56.0 °F /  13.3 °C 55.4 °F /  13 °C 29.27 in /  991.1 hPa WNW 1.6 mph /  2.6 km/h 3.5 mph /  5.6 km/h 98 % 0.00 in /  0 mm
15:08 56.0 °F /  13.3 °C 55.4 °F /  13 °C 29.27 in /  991.1 hPa West 2.7 mph /  4.3 km/h 5.0 mph /  8 km/h 98 % 0.00 in /  0 mm
15:13 55.9 °F /  13.3 °C 55.3 °F /  12.9 °C 29.28 in /  991.4 hPa SW 2.9 mph /  4.7 km/h 5.8 mph /  9.3 km/h 98 % 0.00 in /  0 mm
15:23 56.0 °F /  13.3 °C 55.2 °F /  12.9 °C 29.27 in /  991.1 hPa SW 0.3 mph /  0.5 km/h 2.3 mph /  3.7 km/h 97 % 0.00 in /  0 mm
15:33 56.0 °F /  13.3 °C 55.2 °F /  12.9 °C 29.28 in /  991.4 hPa WSW 2.0 mph /  3.2 km/h 3.5 mph /  5.6 km/h 97 % 0.00 in /  0 mm
15:38 56.0 °F /  13.3 °C 55.2 °F /  12.9 °C 29.28 in /  991.4 hPa West 0.5 mph /  0.8 km/h 3.5 mph /  5.6 km/h 97 % 0.00 in /  0 mm
15:43 56.0 °F /  13.3 °C 55.2 °F /  12.9 °C 29.28 in /  991.4 hPa West 0.3 mph /  0.5 km/h 1.0 mph /  1.6 km/h 97 % 0.00 in /  0 mm
15:48 56.0 °F /  13.3 °C 55.2 °F /  12.9 °C 29.28 in /  991.4 hPa West 0.6 mph /  1 km/h 2.3 mph /  3.7 km/h 97 % 0.00 in /  0 mm
15:53 55.9 °F /  13.3 °C 55.1 °F /  12.8 °C 29.28 in /  991.4 hPa Calm   1.2 mph /  1.9 km/h 97 % 0.00 in /  0 mm
15:58 55.9 °F /  13.3 °C 55.1 °F /  12.8 °C 29.29 in /  991.8 hPa Calm     97 % 0.00 in /  0 mm
16:03 55.8 °F /  13.2 °C 55.0 °F /  12.8 °C 29.29 in /  991.8 hPa Calm     97 % 0.00 in /  0 mm
16:08 55.7 °F /  13.2 °C 54.9 °F /  12.7 °C 29.30 in /  992.1 hPa WSW 1.1 mph /  1.8 km/h 4.6 mph /  7.4 km/h 97 % 0.00 in /  0 mm
16:13 55.4 °F /  13 °C 54.6 °F /  12.6 °C 29.30 in /  992.1 hPa WSW 1.1 mph /  1.8 km/h 3.5 mph /  5.6 km/h 97 % 0.00 in /  0 mm
16:18 55.1 °F /  12.8 °C 54.0 °F /  12.2 °C 29.30 in /  992.1 hPa WSW 0.8 mph /  1.3 km/h 6.9 mph /  11.1 km/h 96 % 0.00 in /  0 mm
16:29 54.8 °F /  12.7 °C 53.7 °F /  12.1 °C 29.31 in /  992.4 hPa WSW 0.8 mph /  1.3 km/h 5.0 mph /  8 km/h 96 % 0.00 in /  0 mm
16:34 54.6 °F /  12.6 °C 53.5 °F /  11.9 °C 29.31 in /  992.4 hPa WSW 0.4 mph /  0.6 km/h 2.3 mph /  3.7 km/h 96 % 0.00 in /  0 mm
16:39 54.5 °F /  12.5 °C 53.4 °F /  11.9 °C 29.31 in /  992.4 hPa WSW 0.2 mph /  0.3 km/h 1.2 mph /  1.9 km/h 96 % 0.00 in /  0 mm
16:44 54.4 °F /  12.4 °C 53.0 °F /  11.7 °C 29.31 in /  992.4 hPa Calm     95 % 0.00 in /  0 mm
16:49 54.2 °F /  12.3 °C 52.8 °F /  11.6 °C 29.31 in /  992.4 hPa Calm     95 % 0.00 in /  0 mm
16:54 54.0 °F /  12.2 °C 52.6 °F /  11.4 °C 29.31 in /  992.4 hPa Calm   1.2 mph /  1.9 km/h 95 % 0.00 in /  0 mm
16:59 53.9 °F /  12.2 °C 52.5 °F /  11.4 °C 29.32 in /  992.8 hPa WSW 0.9 mph /  1.4 km/h 2.3 mph /  3.7 km/h 95 % 0.00 in /  0 mm
17:09 53.7 °F /  12.1 °C 52.3 °F /  11.3 °C 29.33 in /  993.1 hPa WSW 0.6 mph /  1 km/h 3.5 mph /  5.6 km/h 95 % 0.00 in /  0 mm
17:14 53.6 °F /  12 °C 52.5 °F /  11.4 °C 29.33 in /  993.1 hPa WSW 0.1 mph /  0.2 km/h 3.0 mph /  4.8 km/h 96 % 0.00 in /  0 mm
17:29 53.7 °F /  12.1 °C 52.6 °F /  11.4 °C 29.35 in /  993.8 hPa NW 1.7 mph /  2.7 km/h 3.5 mph /  5.6 km/h 96 % 0.00 in /  0 mm
17:34 53.7 °F /  12.1 °C 52.6 °F /  11.4 °C 29.37 in /  994.5 hPa Calm   3.5 mph /  5.6 km/h 96 % 0.00 in /  0 mm
17:39 53.3 °F /  11.8 °C 52.2 °F /  11.2 °C 29.36 in /  994.1 hPa WNW 8.0 mph /  12.9 km/h 12.0 mph /  19.3 km/h 96 % 0.00 in /  0 mm
17:44 52.9 °F /  11.6 °C 51.5 °F /  10.8 °C 29.37 in /  994.5 hPa WNW 5.9 mph /  9.5 km/h 10.4 mph /  16.7 km/h 95 % 0.00 in /  0 mm
17:54 52.2 °F /  11.2 °C 50.8 °F /  10.4 °C 29.37 in /  994.5 hPa WNW 2.3 mph /  3.7 km/h 4.6 mph /  7.4 km/h 95 % 0.00 in /  0 mm
18:00 52.0 °F /  11.1 °C 50.6 °F /  10.3 °C 29.38 in /  994.8 hPa West 3.7 mph /  6 km/h 4.6 mph /  7.4 km/h 95 % 0.00 in /  0 mm
18:05 51.7 °F /  10.9 °C 50.3 °F /  10.2 °C 29.37 in /  994.5 hPa WNW 3.4 mph /  5.5 km/h 9.2 mph /  14.8 km/h 95 % 0.00 in /  0 mm
18:10 51.4 °F /  10.8 °C 50.0 °F /  10 °C 29.37 in /  994.5 hPa NW 7.5 mph /  12.1 km/h 8.0 mph /  12.9 km/h 95 % 0.00 in /  0 mm
18:15 51.0 °F /  10.6 °C 49.3 °F /  9.6 °C 29.37 in /  994.5 hPa West 3.3 mph /  5.3 km/h 8.1 mph /  13 km/h 94 % 0.00 in /  0 mm
18:20 50.6 °F /  10.3 °C 48.9 °F /  9.4 °C 29.38 in /  994.8 hPa SSE 1.2 mph /  1.9 km/h 8.1 mph /  13 km/h 94 % 0.00 in /  0 mm
18:25 50.3 °F /  10.2 °C 48.4 °F /  9.1 °C 29.38 in /  994.8 hPa West 1.4 mph /  2.3 km/h 3.5 mph /  5.6 km/h 93 % 0.00 in /  0 mm
18:30 50.0 °F /  10 °C 48.1 °F /  8.9 °C 29.38 in /  994.8 hPa WSW 1.9 mph /  3.1 km/h 3.5 mph /  5.6 km/h 93 % 0.00 in /  0 mm
18:35 49.7 °F /  9.8 °C 47.5 °F /  8.6 °C 29.38 in /  994.8 hPa WSW 5.6 mph /  9 km/h 9.0 mph /  14.5 km/h 92 % 0.00 in /  0 mm
18:40 49.2 °F /  9.6 °C 46.7 °F /  8.2 °C 29.37 in /  994.5 hPa SW 2.4 mph /  3.9 km/h 4.6 mph /  7.4 km/h 91 % 0.00 in /  0 mm
18:45 48.9 °F /  9.4 °C 46.1 °F /  7.8 °C 29.38 in /  994.8 hPa WSW 4.8 mph /  7.7 km/h 8.1 mph /  13 km/h 90 % 0.00 in /  0 mm
18:50 48.5 °F /  9.2 °C 45.7 °F /  7.6 °C 29.38 in /  994.8 hPa SW 6.1 mph /  9.8 km/h 11.0 mph /  17.7 km/h 90 % 0.00 in /  0 mm
18:55 48.2 °F /  9 °C 45.4 °F /  7.4 °C 29.38 in /  994.8 hPa WSW 3.1 mph /  5 km/h 6.9 mph /  11.1 km/h 90 % 0.00 in /  0 mm
19:00 48.0 °F /  8.9 °C 45.2 °F /  7.3 °C 29.38 in /  994.8 hPa West 4.2 mph /  6.8 km/h 6.0 mph /  9.7 km/h 90 % 0.00 in /  0 mm
19:05 47.9 °F /  8.8 °C 44.8 °F /  7.1 °C 29.38 in /  994.8 hPa WSW 2.4 mph /  3.9 km/h 4.6 mph /  7.4 km/h 89 % 0.00 in /  0 mm
19:10 47.8 °F /  8.8 °C 45.0 °F /  7.2 °C 29.38 in /  994.8 hPa SW 1.9 mph /  3.1 km/h 3.5 mph /  5.6 km/h 90 % 0.00 in /  0 mm
19:15 47.6 °F /  8.7 °C 44.8 °F /  7.1 °C 29.38 in /  994.8 hPa SW 2.2 mph /  3.5 km/h 4.6 mph /  7.4 km/h 90 % 0.00 in /  0 mm
19:20 47.6 °F /  8.7 °C 44.8 °F /  7.1 °C 29.39 in /  995.1 hPa WSW 1.4 mph /  2.3 km/h 5.8 mph /  9.3 km/h 90 % 0.00 in /  0 mm
19:25 47.4 °F /  8.6 °C 44.6 °F /  7 °C 29.39 in /  995.1 hPa SW 4.3 mph /  6.9 km/h 4.3 mph /  6.9 km/h 90 % 0.00 in /  0 mm
19:30 47.2 °F /  8.4 °C 44.4 °F /  6.9 °C 29.39 in /  995.1 hPa WSW 3.3 mph /  5.3 km/h 8.1 mph /  13 km/h 90 % 0.00 in /  0 mm
19:36 47.0 °F /  8.3 °C 43.9 °F /  6.6 °C 29.39 in /  995.1 hPa WSW 6.4 mph /  10.3 km/h 10.4 mph /  16.7 km/h 89 % 0.00 in /  0 mm
19:46 46.8 °F /  8.2 °C 43.4 °F /  6.3 °C 29.40 in /  995.5 hPa SW 3.3 mph /  5.3 km/h 5.8 mph /  9.3 km/h 88 % 0.00 in /  0 mm
19:51 46.7 °F /  8.2 °C 43.3 °F /  6.3 °C 29.40 in /  995.5 hPa WSW 3.0 mph /  4.8 km/h 7.0 mph /  11.3 km/h 88 % 0.00 in /  0 mm
19:56 46.6 °F /  8.1 °C 43.2 °F /  6.2 °C 29.40 in /  995.5 hPa WSW 2.0 mph /  3.2 km/h 6.0 mph /  9.7 km/h 88 % 0.00 in /  0 mm
20:01 46.5 °F /  8.1 °C 43.1 °F /  6.2 °C 29.40 in /  995.5 hPa SW 6.0 mph /  9.7 km/h 6.0 mph /  9.7 km/h 88 % 0.00 in /  0 mm
20:06 46.4 °F /  8 °C 42.7 °F /  5.9 °C 29.40 in /  995.5 hPa WSW 2.0 mph /  3.2 km/h 10.0 mph /  16.1 km/h 87 % 0.00 in /  0 mm
20:11 46.4 °F /  8 °C 42.4 °F /  5.8 °C 29.40 in /  995.5 hPa WSW 3.0 mph /  4.8 km/h 13.0 mph /  20.9 km/h 86 % 0.00 in /  0 mm
20:16 46.4 °F /  8 °C 42.1 °F /  5.6 °C 29.40 in /  995.5 hPa West 7.9 mph /  12.7 km/h 14.0 mph /  22.5 km/h 85 % 0.00 in /  0 mm
20:21 46.5 °F /  8.1 °C 41.9 °F /  5.5 °C 29.40 in /  995.5 hPa WSW 10.0 mph /  16.1 km/h 18.0 mph /  29 km/h 84 % 0.00 in /  0 mm
20:26 46.5 °F /  8.1 °C 41.9 °F /  5.5 °C 29.41 in /  995.8 hPa West 5.0 mph /  8 km/h 13.0 mph /  20.9 km/h 84 % 0.00 in /  0 mm
20:31 46.5 °F /  8.1 °C 41.3 °F /  5.2 °C 29.41 in /  995.8 hPa WSW 10.0 mph /  16.1 km/h 21.0 mph /  33.8 km/h 82 % 0.00 in /  0 mm
20:36 46.5 °F /  8.1 °C 41.0 °F /  5 °C 29.41 in /  995.8 hPa WSW 8.0 mph /  12.9 km/h 17.0 mph /  27.4 km/h 81 % 0.00 in /  0 mm
20:41 46.4 °F /  8 °C 40.3 °F /  4.6 °C 29.42 in /  996.2 hPa West 8.0 mph /  12.9 km/h 17.0 mph /  27.4 km/h 79 % 0.00 in /  0 mm
20:46 46.3 °F /  7.9 °C 39.8 °F /  4.3 °C 29.42 in /  996.2 hPa WSW 7.0 mph /  11.3 km/h 15.0 mph /  24.1 km/h 78 % 0.00 in /  0 mm
20:56 46.0 °F /  7.8 °C 38.9 °F /  3.8 °C 29.43 in /  996.5 hPa WSW 10.1 mph /  16.3 km/h 13.8 mph /  22.2 km/h 76 % 0.00 in /  0 mm
21:01 45.9 °F /  7.7 °C 38.4 °F /  3.6 °C 29.43 in /  996.5 hPa NW 8.0 mph /  12.9 km/h 18.4 mph /  29.6 km/h 75 % 0.00 in /  0 mm
21:06 45.8 °F /  7.7 °C 37.6 °F /  3.1 °C 29.43 in /  996.5 hPa SW 9.0 mph /  14.5 km/h 18.4 mph /  29.6 km/h 73 % 0.00 in /  0 mm
21:11 45.7 °F /  7.6 °C 37.5 °F /  3.1 °C 29.44 in /  996.8 hPa WSW 5.6 mph /  9 km/h 18.4 mph /  29.6 km/h 73 % 0.00 in /  0 mm
21:16 45.6 °F /  7.6 °C 37.4 °F /  3 °C 29.44 in /  996.8 hPa WSW 10.0 mph /  16.1 km/h 19.6 mph /  31.5 km/h 73 % 0.00 in /  0 mm
21:21 45.5 °F /  7.5 °C 36.6 °F /  2.6 °C 29.44 in /  996.8 hPa SW 6.0 mph /  9.7 km/h 16.1 mph /  25.9 km/h 71 % 0.00 in /  0 mm
21:26 45.4 °F /  7.4 °C 36.5 °F /  2.5 °C 29.44 in /  996.8 hPa SSW 4.0 mph /  6.4 km/h 11.5 mph /  18.5 km/h 71 % 0.00 in /  0 mm
21:31 45.2 °F /  7.3 °C 36.0 °F /  2.2 °C 29.45 in /  997.2 hPa WSW 3.9 mph /  6.3 km/h 11.5 mph /  18.5 km/h 70 % 0.00 in /  0 mm
21:36 45.1 °F /  7.3 °C 35.5 °F /  1.9 °C 29.45 in /  997.2 hPa NW 7.8 mph /  12.6 km/h 13.8 mph /  22.2 km/h 69 % 0.00 in /  0 mm
21:41 44.9 °F /  7.2 °C 35.3 °F /  1.8 °C 29.44 in /  996.8 hPa WSW 5.1 mph /  8.2 km/h 11.5 mph /  18.5 km/h 69 % 0.00 in /  0 mm
21:46 44.9 °F /  7.2 °C 35.0 °F /  1.7 °C 29.45 in /  997.2 hPa WNW 8.9 mph /  14.3 km/h 17.3 mph /  27.8 km/h 68 % 0.00 in /  0 mm
21:51 44.9 °F /  7.2 °C 34.6 °F /  1.4 °C 29.45 in /  997.2 hPa WNW 6.8 mph /  10.9 km/h 13.8 mph /  22.2 km/h 67 % 0.00 in /  0 mm
21:56 44.8 °F /  7.1 °C 34.9 °F /  1.6 °C 29.45 in /  997.2 hPa WNW 7.9 mph /  12.7 km/h 15.0 mph /  24.1 km/h 68 % 0.00 in /  0 mm
22:01 44.7 °F /  7.1 °C 34.4 °F /  1.3 °C 29.45 in /  997.2 hPa NNW 4.4 mph /  7.1 km/h 11.5 mph /  18.5 km/h 67 % 0.00 in /  0 mm
22:06 44.7 °F /  7.1 °C 34.4 °F /  1.3 °C 29.45 in /  997.2 hPa WSW 9.3 mph /  15 km/h 10.4 mph /  16.7 km/h 67 % 0.00 in /  0 mm
22:11 44.7 °F /  7.1 °C 34.4 °F /  1.3 °C 29.46 in /  997.5 hPa WSW 7.0 mph /  11.3 km/h 9.0 mph /  14.5 km/h 67 % 0.00 in /  0 mm
22:21 44.4 °F /  6.9 °C 34.5 °F /  1.4 °C 29.46 in /  997.5 hPa WSW 6.3 mph /  10.1 km/h 8.1 mph /  13 km/h 68 % 0.00 in /  0 mm
22:26 44.2 °F /  6.8 °C 34.3 °F /  1.3 °C 29.46 in /  997.5 hPa West 8.4 mph /  13.5 km/h 11.5 mph /  18.5 km/h 68 % 0.00 in /  0 mm
22:31 44.0 °F /  6.7 °C 34.1 °F /  1.2 °C 29.46 in /  997.5 hPa WSW 4.1 mph /  6.6 km/h 12.0 mph /  19.3 km/h 68 % 0.00 in /  0 mm
22:36 43.8 °F /  6.6 °C 34.3 °F /  1.3 °C 29.46 in /  997.5 hPa West 6.1 mph /  9.8 km/h 10.4 mph /  16.7 km/h 69 % 0.00 in /  0 mm
22:42 43.6 °F /  6.4 °C 34.1 °F /  1.2 °C 29.46 in /  997.5 hPa SW 5.8 mph /  9.3 km/h 10.4 mph /  16.7 km/h 69 % 0.00 in /  0 mm
22:47 43.5 °F /  6.4 °C 34.4 °F /  1.3 °C 29.46 in /  997.5 hPa WSW 5.2 mph /  8.4 km/h 12.0 mph /  19.3 km/h 70 % 0.00 in /  0 mm
22:52 43.3 °F /  6.3 °C 33.8 °F /  1 °C 29.46 in /  997.5 hPa SW 7.0 mph /  11.3 km/h 15.0 mph /  24.1 km/h 69 % 0.00 in /  0 mm
22:57 43.1 °F /  6.2 °C 34.0 °F /  1.1 °C 29.46 in /  997.5 hPa SSW 6.6 mph /  10.6 km/h 10.4 mph /  16.7 km/h 70 % 0.00 in /  0 mm
23:02 43.1 °F /  6.2 °C 34.0 °F /  1.1 °C 29.46 in /  997.5 hPa WSW 1.7 mph /  2.7 km/h 6.0 mph /  9.7 km/h 70 % 0.00 in /  0 mm
23:07 42.9 °F /  6.1 °C 33.8 °F /  1 °C 29.47 in /  997.9 hPa WSW 3.4 mph /  5.5 km/h 8.1 mph /  13 km/h 70 % 0.00 in /  0 mm
23:12 42.9 °F /  6.1 °C 33.8 °F /  1 °C 29.46 in /  997.5 hPa WSW 6.6 mph /  10.6 km/h 15.0 mph /  24.1 km/h 70 % 0.00 in /  0 mm
23:22 42.9 °F /  6.1 °C 34.1 °F /  1.2 °C 29.47 in /  997.9 hPa WSW 3.8 mph /  6.1 km/h 9.2 mph /  14.8 km/h 71 % 0.00 in /  0 mm
23:27 42.8 °F /  6 °C 33.7 °F /  0.9 °C 29.47 in /  997.9 hPa WSW 4.9 mph /  7.9 km/h 8.1 mph /  13 km/h 70 % 0.00 in /  0 mm
23:47 42.5 °F /  5.8 °C 33.8 °F /  1 °C 29.47 in /  997.9 hPa SW 2.7 mph /  4.3 km/h 11.0 mph /  17.7 km/h 71 % 0.00 in /  0 mm
23:52 42.4 °F /  5.8 °C 33.7 °F /  0.9 °C 29.47 in /  997.9 hPa SW 5.9 mph /  9.5 km/h 11.5 mph /  18.5 km/h 71 % 0.00 in /  0 mm
23:57 42.3 °F /  5.7 °C 33.9 °F /  1.1 °C 29.47 in /  997.9 hPa West 5.8 mph /  9.3 km/h 11.5 mph /  18.5 km/h 72 % 0.00 in /  0 mm
Crab Meadow Weather
Compliments of Weather Underground - 2.75 mb

Script developed by  Jim McMurry - jmcmurry@mwt.net Adapted for the template by  Wim van der Kuil - Leuven-Template.eu

Weather Terms: Watch - A watch is used when the risk of a hazardous weather or hydrologic event has increased significantly, but its occurrence, location or timing is still uncertain. It is intended to provide enough lead time so those who need to set their plans in motion can do so. A watch means that hazardous weather is possible. People should have a plan of action in case a storm threatens and they should listen for later information and possible warnings especially when planning travel or outdoor activities.